This demonstration page uses our WeatherBlox Daily Observations layout. Learn more.

Left ArrowRight Arrow

38.80484, -77.04692

Hourly Observations for October 27, 2019

Temp ( °F °C ) Dew Point ( °F °C ) Humidity (%) Winds ( mph kmh ) Pressure ( in mb ) Visibility ( mi km ) Precip ( " mm )
12:52 am 00:52 Cloudy 61 16.1 58 14.4 90 90 E 8 13 30.07 1018 10 16 0.00 0.00
1:33 am 01:33 Cloudy 61 16.1 58 14.4 90 90 ESE 6 9 30.06 1018 10 16 0.00 0.00
1:49 am 01:49 Cloudy with Light Rain 61 16 57 14 88 88 E 6 9 30.06 1018 10 16 0.00 0.00
1:52 am 01:52 Cloudy with Light Rain 61 16.1 58 14.4 90 90 E 6 9 30.05 1018 10 16 0.00 0.00
2:52 am 02:52 Cloudy 63 17.2 60 15.6 90 90 ESE 5 7 30.01 1016 10 16 0.00 0.00
3:52 am 03:52 Cloudy with Light Rain 62 16.7 61 16.1 96 96 ESE 3 6 29.97 1015 6 10 0.00 0.00
4:14 am 04:14 Cloudy with Light Rain 62 16.7 61 16.1 96 96 E 3 6 29.94 1014 5 8 0.00 0.00
4:52 am 04:52 Cloudy with Light Rain 63 17.2 62 16.7 97 97 SE 6 9 29.93 1013 6 10 0.00 0.00
5:52 am 05:52 Cloudy with Rain 64 17.8 63 17.2 96 96 SE 13 20 29.87 1012 4 6 0.00 0.00
6:52 am 06:52 Cloudy with Light Rain 65 18.3 64 17.8 97 97 SSE 12 19 29.84 1010 7 11 0.00 0.00
7:42 am 07:42 Cloudy with Light Rain 68 20 67 19.4 96 96 SSE 12 19 29.80 1009 3 5 0.00 0.00
7:52 am 07:52 Cloudy with Light Rain 68 20 67 19.4 96 96 SSE 15 24 29.80 1009 3 5 0.00 0.00
8:52 am 08:52 Cloudy 69 20.6 69 20.6 100 100 S 18 30 29.79 1009 9 14 0.00 0.00
9:52 am 09:52 Cloudy with Light Rain 69 20.6 69 20.6 100 100 SW 14 22 29.78 1009 6 10 0.00 0.00
9:55 am 09:55 Cloudy with Rain 71 21.7 69 20.6 94 94 SW 14 22 29.80 1009 2 3 0.00 0.00
10:39 am 10:39 Cloudy with Rain 71 21.7 69 20.6 94 94 SW 14 22 29.80 1009 2 3 0.00 0.00
10:46 am 10:46 Cloudy with Heavy Rain 72 22 70 21 94 94 SW 14 22 29.80 1009 2 2 0.00 0.00
10:52 am 10:52 Cloudy with Heavy Rain 71 21.7 69 20.6 94 94 SSW 7 11 29.78 1008 1 2 0.00 0.00
11:05 am 11:05 Cloudy with Heavy Rain 71 21.7 69 20.6 94 94 SSW 7 11 29.77 1008 1 2 0.00 0.00
11:10 am 11:10 Cloudy with Heavy Rain 71 21.7 69 20.6 94 94 SSW 7 11 29.77 1008 1 1 0.00 0.00
11:23 am 11:23 Mostly Cloudy with Light Rain 71 21.7 69 20.6 94 94 SSW 7 11 29.77 1008 3 5 0.00 0.00
11:33 am 11:33 Mostly Cloudy with Light Rain 71 21.7 69 20.6 94 94 SSW 7 11 29.77 1008 4 6 0.00 0.00
11:52 am 11:52 Mostly Cloudy with Mist and Fog 76 24.4 74 23.3 94 94 NNW 8 13 29.77 1008 5 8 0.00 0.00
12:16 pm 12:16 Mostly Cloudy 76 24.4 74 23.3 94 94 NNW 8 13 29.80 1009 10 16 0.00 0.00
12:52 pm 12:52 Mostly Cloudy 79 26.1 72 22.2 79 79 NNW 8 13 29.78 1008 10 16 0.00 0.00
1:52 pm 13:52 Partly Cloudy 78 25.6 68 20 71 71 NW 10 17 29.77 1008 10 16 0.00 0.00
2:52 pm 14:52 Partly Cloudy 78 25.6 66 18.9 67 67 W 12 19 29.76 1008 10 16 0.00 0.00
3:52 pm 15:52 Partly Cloudy 80 26.7 60 15.6 51 51 WNW 12 19 29.78 1009 10 16 0.00 0.00
4:52 pm 16:52 Partly Cloudy 77 25 57 13.9 50 50 WNW 13 20 29.80 1009 10 16 0.00 0.00
5:52 pm 17:52 Mostly Sunny 74 23.3 53 11.7 48 48 WNW 12 19 29.83 1010 10 16 0.00 0.00
6:52 pm 18:52 Mostly Clear 71 21.7 55 12.8 57 57 WNW 10 17 29.87 1012 10 16 0.00 0.00
7:52 pm 19:52 Clear 68 20 51 10.6 55 55 WNW 12 19 29.91 1013 10 16 0.00 0.00
8:52 pm 20:52 Clear 67 19.4 51 10.6 57 57 NW 8 13 29.94 1014 10 16 0.00 0.00
9:52 pm 21:52 Clear 65 18.3 51 10.6 61 61 NW 6 9 29.97 1015 10 16 0.00 0.00
10:52 pm 22:52 Clear 67 19.4 52 11.1 59 59 NW 6 9 29.99 1016 10 16 0.00 0.00
11:52 pm 23:52 Clear 66 18.9 52 11.1 61 61 NNW 8 13 30.01 1016 10 16 0.00 0.00

Powered by AerisWeather